Location: Home
(42.5358°N, 72.7383°W)
Time: 17:53:22
(UTC-04:00)

Explorer 11/Cluster Stage 4 - Pass Details

Date: 12 August 2024
Orbit: 464 x 1208 km, 28.8° (Epoch: 19 September)

Event Time Altitude Azimuth Distance (km) Brightness Sun altitude
Rises 22:36:08 0° 222° (SW) 2,985 - -24.5°
Reaches altitude 10° 22:39:11 10° 201° (SSW) 2,218 - -24.9°
Maximum altitude 22:42:23 16° 163° (SSE) 1,968 - -25.2°
Drops below altitude 10° 22:45:59 10° 127° (SE) 2,540 - -25.6°
Sets 22:49:50 0° 108° (ESE) 3,655 - -26.0°
